Simultaneous Nadir Overpasses (SNOs) Predictions

Prediction of SNOs between METOP-A and NOAA-19 Satellite Orbit:

Table of predicted SNOs for the next 14.0 days since TLE Epoch: 11/27/2016
Index Date (METOP-A) Time (METOP-A) Lat,Lon (METOP-A) SZA (METOP-A ) Date (NOAA-19) Time (NOAA-19) Lat,Lon (NOAA-19) SZA (NOAA-19 ) Distance(km) Time Diff (sec)
1 11/27/2016 14:28:44 -76.71, 145.35 82.04 11/27/2016 14:27:30 -76.74, 144.75 82.03 15.79 74
2 11/27/2016 15:19:25 76.65, -47.53 97.91 11/27/2016 15:18:33 76.65, -47.65 97.90 3.12 52
3 11/27/2016 16:10:07 -76.65, 119.77 82.10 11/27/2016 16:09:29 -76.62, 119.74 82.13 3.00 38
4 11/27/2016 17:00:47 76.63, -72.95 97.90 11/27/2016 17:00:34 76.62, -73.01 97.88 2.48 13
5 11/27/2016 17:51:29 -76.63, 94.35 82.11 11/27/2016 17:51:31 -76.63, 94.21 82.11 3.67 2
6 11/27/2016 18:42:09 76.61, -98.36 97.89 11/27/2016 18:42:35 76.58, -98.37 97.86 3.62 26
7 11/27/2016 19:32:51 -76.61, 68.94 82.12 11/27/2016 19:33:32 -76.59, 68.85 82.13 2.98 41
8 11/27/2016 20:23:30 76.59,-123.78 97.88 11/27/2016 20:24:36 76.59,-123.91 97.88 3.53 66
9 11/27/2016 21:14:17 -76.36, 42.70 82.37 11/27/2016 21:15:28 -76.38, 44.18 82.31 38.80 71
10 12/08/2016 07:15:17 -76.69,-106.37 80.59 12/08/2016 07:14:02 -76.71,-106.49 80.58 3.98 75
11 12/08/2016 08:05:57 76.66, 60.87 99.39 12/08/2016 08:05:03 76.65, 60.98 99.38 2.95 54
12 12/08/2016 08:56:39 -76.67,-131.78 80.61 12/08/2016 08:56:03 -76.67,-131.84 80.60 1.80 36
13 12/08/2016 09:47:19 76.64, 35.46 99.38 12/08/2016 09:47:05 76.66, 35.44 99.40 2.40 14
14 12/08/2016 10:38:01 -76.65,-157.20 80.62 12/08/2016 10:38:04 -76.64,-157.20 80.63 1.04 3
15 12/08/2016 11:28:41 76.62, 10.04 99.36 12/08/2016 11:29:06 76.63, 10.08 99.37 1.26 25
16 12/08/2016 12:19:22 -76.63, 177.39 80.63 12/08/2016 12:20:04 -76.60, 177.44 80.65 3.03 42
17 12/08/2016 13:10:02 76.60, -15.37 99.35 12/08/2016 13:11:06 76.59, -15.28 99.34 2.62 64
18 12/08/2016 14:00:51 -76.29, 150.82 80.98 12/08/2016 14:02:00 -76.35, 152.93 80.88 55.84 69




NCC Satellite Simultaneous Nadir Overpasses
